Skip Page Navigation
NASA JPL Caltech
NASA Logo - Jet Propulsion Laboratory + View the NASA Portal
+ Center for Near-Earth Object Studies
JPL Home Earth Solar System Stars & Galaxies Technology
JPL Solar System Dynamics
BODIES ORBITS EPHEMERIDES TOOLS PHYSICAL DATA DISCOVERY FAQ SITE MAP
JPL Small-Body Database Browser
Search: [ help ]  
135670 (2002 NY24)
Classification: Main-belt Asteroid          SPK-ID: 2135670
Ephemeris | Orbit Diagram | Orbital Elements | Mission Design | Physical Parameters | Discovery Circumstances ]

[ show orbit diagram ]
Orbital Elements at Epoch 2459200.5 (2020-Dec-17.0) TDB
Reference: JPL 20 (heliocentric ecliptic J2000)
 Element Value Uncertainty (1-sigma)   Units 
e .119650963604267 5.6282e-08  
a 2.551228757991141 1.8934e-08 au
q 2.245971778722584 1.33e-07 au
i 15.71542303299443 4.4844e-06 deg
node 143.0008277227367 1.8031e-05 deg
peri 199.3936420459595 3.5035e-05 deg
M 165.4536417432246 3.4653e-05 deg
tp 2458516.436592506322
(2019-Feb-01.93659251)
0.00013756 TDB
period 1488.409829503245
4.08
1.6569e-05
4.536e-08
d
yr
n .2418688676089634 2.6926e-09 deg/d
Q 2.856485737259699 2.12e-08 au
  Orbit Determination Parameters
   # obs. used (total)      453  
   data-arc span      8779 days (24.04 yr)  
   first obs. used      1997-03-05  
   last obs. used      2021-03-18  
   planetary ephem.      DE441  
   SB-pert. ephem.      SB441-N16  
   condition code      0  
   norm. resid. RMS      .57481  
   source      ORB  
   producer      Otto Matic  
   solution date      2021-May-04 09:21:41  

Additional Information
 Earth MOID = 1.2392 au 
 Jupiter MOID = 2.52551 au 
 T_jup = 3.378 
[ show covariance matrix ]

Ephemeris | Orbit Diagram | Orbital Elements | Mission Design | Physical Parameters | Discovery Circumstances ]

Physical Parameter Table
Parameter Symbol Value Units Sigma Reference Notes
absolute magnitude H 15.82   n/a MPCxxxxx  
diameter diameter 2.258 km 0.529 urn:nasa:pds:neowise_diameters_albedos::2.0[mainbelt] (http://adsabs.harvard.edu/abs/2011ApJ...741...68M)  
geometric albedo albedo 0.219   0.076 urn:nasa:pds:neowise_diameters_albedos::2.0[mainbelt] (http://adsabs.harvard.edu/abs/2011ApJ...741...68M)  

135670 (2002 NY24)          Discovered 2002-Jul-09 by LINEAR at Socorro
Reference: 20060907/Numbers.arcLast Updated: 2006-09-10
Ephemeris | Orbit Diagram | Orbital Elements | Mission Design | Physical Parameters | Discovery Circumstances ]
ABOUT SSD CREDITS/AWARDS PRIVACY/COPYRIGHT GLOSSARY LINKS
FirstGov 2021-May-12 06:47 UT
(server date/time)  
NASA Home Page
Site Manager:   Ryan S. Park
Webmaster  Alan B. Chamberlin